Home   Weather   42°59'N, 96°02'W   Past weeks
Flag for USA

Past Weather in 42°59'N, 96°02'W, USA — Yesterday and Last 2 Weeks

Now
44 °F

Light rain. Mostly cloudy.


Feels Like: 36 °F
Forecast: 51 / 42 °F
Wind: 20 mph from Northwest

Location: Foss Field

Current Time: Oct 21, 2019 at 3:50:09 pm

Latest Report: Oct 21, 2019 at 2:56 pm


Visibility: 5 mi

Pressure: 29.37 "Hg

Humidity: 82%

Dew Point: 39 °F

Location of 42°59'N, 96°02'WLocation

Past Weather in 42°59'N, 96°02'W — Graph

°F

42°59'N, 96°02'W Temperature Yesterday

Maximum temperature yesterday: 60 °F (at 4:56 pm)
Minimum temperature yesterday: 37 °F (at 4:56 am)
Average temperature yesterday: 50 °F

High & Low Weather Summary for the Past Weeks

 TemperatureHumidityPressure
High73 °F (Oct 8, 2:56 pm)93% (Oct 10, 6:10 am)30.23 "Hg (Oct 10, 6:10 am)
Low26 °F (Oct 14, 6:56 am)29% (Oct 19, 3:56 pm)29.30 "Hg (Oct 21, 1:00 pm)
Average47 °F69%29.85 "Hg
* Reported Oct 6 1:56 pm — Oct 21 1:56 pm, 42°59'N, 96°02'W. Weather by CustomWeather, © 2019

Note: Actual official high and low records may vary slightly from our data, if they occured in-between our weather recording intervals... More about our weather records

Advertising

42°59'N, 96°02'W Weather History for the Previous 24 Hours

Scroll right to see more
 ConditionsComfort  
Time TempWeatherWind HumidityBarometerVisibility
1:56 pm
Mon, Oct 21
47 °FLight rain. Mostly cloudy.24 mph80%29.34 "Hg4 mi
1:25 pm48 °FLight rain. Fog.15 mph86%29.31 "Hg2 mi
1:00 pm48 °FLight rain. Fog.15 mph86%29.30 "Hg2 mi
11:56 am50 °FMostly cloudy.16 mph83%29.31 "Hg10 mi
10:56 am51 °FMostly cloudy.14 mph80%29.32 "Hg10 mi
10:12 am51 °FPartly sunny.15 mph83%29.33 "Hg10 mi
9:56 am51 °FMostly cloudy.12 mph83%29.34 "Hg10 mi
8:56 am50 °FMostly cloudy.13 mph86%29.35 "Hg10 mi
8:34 am50 °FPartly sunny.14 mph86%29.34 "Hg9 mi
7:56 am50 °FMostly cloudy.9 mph86%29.34 "Hg10 mi
6:56 am46 °FLow clouds.5 mph89%29.35 "Hg7 mi
5:56 am50 °FMostly cloudy.3 mph86%29.41 "Hg10 mi
4:56 am50 °FPassing clouds.8 mph86%29.41 "Hg10 mi
4:05 am51 °FLow clouds.7 mph83%29.41 "Hg10 mi
3:56 am51 °FOvercast.7 mph86%29.41 "Hg10 mi
2:56 am51 °FOvercast.10 mph83%29.43 "Hg10 mi
2:28 am51 °FOvercast.13 mph83%29.45 "Hg10 mi
2:12 am51 °FMostly cloudy.15 mph80%29.46 "Hg10 mi
1:56 am51 °FMostly cloudy.14 mph80%29.46 "Hg10 mi
1:21 am50 °FPassing clouds.14 mph83%29.46 "Hg10 mi
12:56 am50 °FPassing clouds.15 mph80%29.49 "Hg10 mi
11:56 pm
Sun, Oct 20
50 °FMostly cloudy.13 mph77%29.53 "Hg10 mi
10:56 pm51 °FLight rain. Mostly cloudy.10 mph77%29.57 "Hg10 mi
9:56 pm51 °FLight rain. Overcast.14 mph77%29.60 "Hg10 mi
9:11 pm53 °FLight rain. Overcast.22 mph69%29.59 "Hg10 mi
8:56 pm54 °FThundershowers. Overcast.16 mph67%29.60 "Hg10 mi
7:56 pm57 °FLight rain. Overcast.17 mph55%29.59 "Hg10 mi
6:56 pm59 °FMostly cloudy.21 mph44%29.60 "Hg10 mi
5:56 pm59 °FOvercast.15 mph46%29.62 "Hg10 mi
4:56 pm60 °FPartly sunny.20 mph47%29.63 "Hg10 mi
3:56 pm59 °FMostly cloudy.14 mph54%29.67 "Hg10 mi
Weather by CustomWeather, © 2019

See weather overview